Regional Weather Roundup
Issued by NWS

Home | Current Version | Previous Version | Text Only | Print | Product List | Glossary On
Versions: 1 2 3 4 5 6 7 8 9 10 11 12 13 14 15 16 17 18 19 20 21 22 23 24 25 26 27 28 29 30 31 32 33 34 35 36 37 38 39 40 41 42 43 44 45 46 47 48 49 50
000
ASUS43 KBIS 240331
RWRND
NORTH DAKOTA REGIONAL WEATHER ROUNDUP
NATIONAL WEATHER SERVICE EASTERN NORTH DAKOTA/GRAND FORKS ND
1000 PM CDT MON MAY 23 2022

  NOTE: "FAIR" INDICATES FEW OR NO CLOUDS BELOW 12,000 FEET WITH NO
  SIGNIFICANT WEATHER AND/OR OBSTRUCTIONS TO VISIBILITY.

NDZ001>003-009>011-017-240400-
...NORTHWEST NORTH DAKOTA...

CITY           SKY/WX    TMP DP  RH WIND       PRES   REMARKS
WILLISTON      NOT AVBL
MINOT          FAIR      55  45  68 SE10      30.03R
MINOT AFB      FAIR      54  35  50 S12       30.01R
$$

NDZ018>021-031>035-040>046-240400-
...SOUTHWEST NORTH DAKOTA...

CITY           SKY/WX    TMP DP  RH WIND       PRES   REMARKS
BISMARCK       CLOUDY    58  42  55 SW9       30.08R
DICKINSON      FAIR      48  43  82 S9        30.03R
GARRISON         N/A     52  44  74 S13       30.04R
HETTINGER      MOCLDY    49  42  77 SE7       30.05S
$$

NDZ004>008-012>016-024-026-027-054-240400-
...NORTHEAST NORTH DAKOTA...

CITY           SKY/WX    TMP DP  RH WIND       PRES   REMARKS
GRAND FORKS    LGT RAIN  54  47  77 W13       30.12R
GRAND FORKS AF CLOUDY    54  48  82 CALM      30.11S
DEVILS LAKE    LGT RAIN  52  47  83 S14       30.09R
$$

NDZ022-023-025-028>030-036>039-047>053-240400-
...SOUTHEAST NORTH DAKOTA...

CITY           SKY/WX    TMP DP  RH WIND       PRES   REMARKS
JAMESTOWN      CLOUDY    53  47  79 S10       30.11R
FARGO          CLOUDY    54  48  80 SW9G29    30.14R
WAHPETON       CLOUDY    57  45  62 W9        30.15R
$$



USA.gov is the U.S. government's official web portal to all federal, state and local government web resources and services.